Regional Weather Roundup
Issued by NWS

Home | Current Version | Previous Version | Text Only | Print | Product List | Glossary Off
Versions: 1 2 3 4 5 6 7 8 9 10 11 12 13 14 15 16 17 18 19 20 21 22 23 24 25 26 27 28 29 30 31 32 33 34 35 36 37 38 39 40 41 42 43 44 45 46 47 48 49 50

000
ASUS43 KLOT 281204
RWRIL

ILLINOIS REGIONAL WEATHER ROUNDUP
NATIONAL WEATHER SERVICE CHICAGO/ROMEOVILLE IL
700 AM CDT SUN MAY 28 2017

NOTE: "FAIR" INDICATES FEW OR NO CLOUDS BELOW 12,000 FEET WITH NO
SIGNIFICANT WEATHER AND/OR OBSTRUCTIONS TO VISIBILITY.

* THESE STATIONS ARE NOT UNDER NWS QUALITY CONTROL. THEY ALSO MAY NOT
  REPORT WEATHER SUCH AS PRECIPITATION OR FOG.

ILZ001-002-007-009-015-016-024-281300-
NORTHWEST ILLINOIS

CITY           SKY/WX    TMP DP  RH WIND       PRES   REMARKS
MOLINE         CLOUDY    63  56  78 VRB3      29.78R
6HR MIN TEMP:  59; 6HR MAX TEMP:  63;

STERLING*      CLOUDY    62  60  93 NW10      29.77R
SAVANNA*       LGT RAIN  59  57  96 NW5       29.78R
$$

ILZ003-004-008-010-011-017-018-281300-
NORTH CENTRAL ILLINOIS

CITY           SKY/WX    TMP DP  RH WIND       PRES   REMARKS
ROCKFORD       CLOUDY    62  59  90 N5        29.76R FOG
6HR MIN TEMP:  58; 6HR MAX TEMP:  66;

FREEPORT*      RAIN      56  55  95 N8        29.80R
ROCHELLE*      MOSUNNY   59  58  97 CALM      29.74S FOG
DE KALB*       CLOUDY    60  58  93 CALM      29.75R FOG
PERU*            N/A     60  59  96 CALM      29.75R FOG
$$

ILZ005-006-012>014-019>023-281300-
NORTHEAST ILLINOIS

CITY           SKY/WX    TMP DP  RH WIND       PRES   REMARKS
CHICAGO-OHARE  CLOUDY    60  56  86 SE6       29.72S
6HR MIN TEMP:  56; 6HR MAX TEMP:  63;

CHICAGO-MIDWAY CLOUDY    61  56  83 SE3       29.73R
6HR MIN TEMP:  59; 6HR MAX TEMP:  62;

AURORA         CLOUDY    61  58  90 CALM      29.74R FOG
6HR MIN TEMP:  57; 6HR MAX TEMP:  63;

LANSING*       PTSUNNY   58  58 100 CALM      29.74S FOG
JOLIET*        CLOUDY    60  59  97 CALM      29.74R FOG
WAUKEGAN       MOSUNNY   60  56  86 CALM      29.72S
6HR MIN TEMP:  51; 6HR MAX TEMP:  60;

DUPAGE AIRPORT CLOUDY    59  58  96 S3        29.72S FOG
6HR MIN TEMP:  54; 6HR MAX TEMP:  63;

KANKAKEE*      PTSUNNY   62  61  97 CALM      29.74S FOG
WHEELING       CLOUDY    58  57  97 CALM      29.74R
6HR MIN TEMP:  54; 6HR MAX TEMP:  61;

MORRIS*        PTSUNNY   59  57  93 CALM      29.73S FOG
ROMEOVILLE*    CLOUDY    58  58 100 CALM      29.74S FOG
NORTHERLY ISL    N/A     56  53  90 CALM        N/A
$$

LMZ740>746-281300-
SOUTHERN LAKE MICHIGAN

STATION/POSITION SKY/WX   TEMP    WIND        PRES    VSBY  WAVE
                          AIR SEA DIR/SP/G                  HT/PER
                          (F)     (DEG/KT/KT) (MB)    (MI)  (FT/S)
SOUTHERN BUOY              54 49  360/  4/  4 1007.3          0
WILMETTE HARBOR            52 54                N/A           0
HARRISON CRIB              56     100/  3/  3   N/A
BURNHAM HARBOR             57      CALM  /  2   N/A
CALUMET HARBOR             56        CALM     1006.6R
BURNS HARBOR               64     150/  8/ 10 1007.5R
MICHIGAN CITY              61     130/  7/  7   N/A
MICHIGAN CITY 6N           58 55  160/  2/  4   N/A           0
ST. JOSEPH                 60 58  150/  6/  8 1006.8F         1
$$

ILZ025>027-034>036-040-047-049-050-058-095>099-281300-
WEST-CENTRAL ILLINOIS

CITY           SKY/WX    TMP DP  RH WIND       PRES   REMARKS
QUINCY         FOG       61  61 100 NW15      29.80R VSB 1/4
GALESBURG*     CLOUDY    60  60 100 NW8       29.78R
MACOMB*        CLOUDY    61  61  99 NW12      29.80R FOG
JACKSONVILLE*  FOG       63  63  99 W8        29.76R VSB<1/4
$$

ILZ028>032-037-038-041>044-048-051>054-059>061-281300-
CENTRAL ILLINOIS

CITY           SKY/WX    TMP DP  RH WIND       PRES   REMARKS
PONTIAC        CLOUDY    62  61  99 CALM      29.75R FOG
BLOOMINGTON    CLOUDY    62  61  96 NE6       29.75R FOG
DECATUR        PTSUNNY   63  62  97 SW5       29.74R
PEORIA         CLOUDY    64  63  96 CALM      29.75R FOG
6HR MIN TEMP:  62; 6HR MAX TEMP:  67;

LACON*         FOG       60  60 100 CALM      29.74R VSB 1/2
LINCOLN*       CLOUDY    65  65  97 CALM      29.74R
SPRINGFIELD    PTSUNNY   63  62  97 SW3       29.75R
6HR MIN TEMP:  61; 6HR MAX TEMP:  65;

TAYLORVILLE    CLOUDY    63  63  99 W8        29.75R
6HR MIN TEMP:  59; 6HR MAX TEMP:  64;

$$

ILZ033-039-045-046-055>057-062-063-281300-
EAST-CENTRAL ILLINOIS

CITY           SKY/WX    TMP DP  RH WIND       PRES   REMARKS
CHAMPAIGN      CLOUDY    64  61  90 CALM      29.74R FOG
RANTOUL*       PTSUNNY   65  63  94 E3        29.74R
MATTOON        CLOUDY    63  63 100 W6        29.74R
PARIS*         CLOUDY    64  63  94 SW7       29.74R
$$

ILZ079-100>102-281300-
SOUTHWEST ILLINOIS

CITY           SKY/WX    TMP DP  RH WIND       PRES   REMARKS
ALTON          CLOUDY    63  61  94 W8        29.76S
BELLEVILLE     CLOUDY    63  61  92 SW7       29.79R
CAHOKIA*       CLOUDY    64  60  87 SW5       29.77R
SPARTA*        CLOUDY    63  61  93 S8        29.81R
$$

ILZ064>066-069>071-074>076-080>082-084>086-088>090-092>094-281300-
SOUTH-CENTRAL ILLINOIS

CITY           SKY/WX    TMP DP  RH WIND       PRES   REMARKS
CARBONDALE     CLOUDY    64  63  96 SW12      29.83R
6HR MIN TEMP:  61; 6HR MAX TEMP:  65;

CAIRO*         CLOUDY    65  62  91 SW5       29.87R
EFFINGHAM*     CLOUDY    64  64  99 SW7       29.77R
MARION         PTSUNNY   64  64 100 S9        29.84R
MT. VERNON       N/A     64  62  93 SW13      29.80R
CENTRALIA*     CLOUDY    64  62  94 SW10      29.78R
SALEM*         CLOUDY    64  61  88 SW7       29.77R
$$

ILZ067-068-072-073-078-083-087-091-281300-
SOUTHEAST ILLINOIS

CITY           SKY/WX    TMP DP  RH WIND       PRES   REMARKS
LAWRENCEVILLE  CLOUDY    65  62  90 S8        29.76R
FLORA*         CLOUDY    65  61  87 SW6       29.78R
FAIRFIELD*     CLOUDY    64  61  90 SW7       29.79R
HARRISBURG*    CLOUDY    64  62  92 SW10G17   29.84R
ROBINSON*      PTSUNNY   63  61  92 S6        29.76R
CARMI*         CLOUDY    65  61  87 S13       29.80R
$$

ABBREVIATIONS USED IN REMARKS
   TC - TEMPERATURE IN CELSIUS
  WCI - WIND CHILL INDEX
   HX - HEAT INDEX
  VSB - VISIBILITY
$$





USA.gov is the U.S. government's official web portal to all federal, state and local government web resources and services.